Simultaneous Nadir Overpasses (SNOs) Predictions

Prediction of SNOs between GOES-17 and TERRA Satellite Orbit:

Table of predicted SNOs for the next 14.0 days since TLE Epoch: 9/24/2022
Index Date Time (GOES-17) GOES-17 Lat,Lon TERRA Lat,Lon Distance(km) Time Diff (sec)
1 09/25/2022 07:22:20 0.06,-137.33 0.25,-136.49 95.50 80
2 09/25/2022 19:40:54 -0.06,-137.33 0.86,-141.65 490.59 80
3 09/27/2022 07:10:03 0.06,-137.33 0.86,-133.53 431.82 80
4 09/27/2022 19:28:37 -0.06,-137.33 0.25,-138.68 154.45 80
5 09/29/2022 19:19:00 -0.06,-137.31 -0.37,-135.72 180.87 80
6 09/30/2022 07:37:43 0.06,-137.31 -0.71,-140.91 410.43 80
7 10/02/2022 07:25:26 0.05,-137.28 -0.08,-137.95 76.41 80
8 10/04/2022 07:15:48 0.04,-137.24 0.51,-134.98 256.97 80
9 10/04/2022 19:34:22 -0.04,-137.24 0.60,-140.14 330.10 80
10 10/06/2022 19:22:05 -0.04,-137.20 -0.06,-137.18 3.44 80
